Powrót do katalogu

CZ-4C R/B

AktywnyPO
NORAD 52913·ROCKET BODY·🇨🇳 China

Wystrzelony Jun 27, 2022 z Jiuquan Satellite Launch Center

Loading…

Następne Przeloty (najbliższe 24 godziny)

TLE

ŚwieżeSource: Space-Track

Epoka: Sep 14, 2026, 09:48 UTC

1 52913U 22069B   26257.40865220  .00005974  00000-0  17244-3 0  9994
2 52913  98.0119 246.8294 0043238 142.3581 218.0700 15.35184270233719

Śledź CZ-4C R/B w czasie rzeczywistym z AllMySat

Download on the App Store